EHI
3 2 1 0 0 0 0 0 0 0 0 0 0 0 0 0 0 0 0 0 0 0 0 0 0 0 0 0 0 0 0 0 0 0 0 0 0 0
2 2 1 0 0 0 0 0 0 0 0 0 0 0 0 0 0 0 0 0 0 0 0 0 0 0 0 0 0 0 0 0 0 0 0 0 0 0
1 1 0 0 0 0 0 0 0 0 0 0 0 0 0 0 0 0 0 0 0 0 0 0 0 0 0 0 0 0 0 0 0 0 0 0 0 0
1 1 1 0 0 0 0 0 0 0 0 0 0 0 0 0 0 0 0 0 0 0 0 0 0 0 0 0 0 0 0 0 0 0 0 0 0 0
1 2 2 1 0 0 0 0 0 0 0 0 0 0 0 0 0 0 0 0 0 0 0 0 0 0 0 0 0 0 0 0 0 0 0 0 0 0
0 1 1 1 0 0 0 0 0 0 0 0 0 0 0 0 0 0 0 0 0 0 0 0 0 0 0 0 0 0 0 0 0 0 0 0 0 0
0 0 0 0 0 0 0 0 0 0 0 0 0 0 0 0 0 0 0 0 0 0 0 0 0 0 0 0 0 0 0 0 0 0 0 0 0 0
0 0 0 0 0 0 0 0 0 0 0 0 0 0 0 0 0 0 0 0 0 0 0 0 0 0 0 0 0 0 0 0 0 0 0 0 0 0
0 0 0 0 0 0 0 0 0 0 0 0 0 0 0 0 0 0 0 0 0 0 0 0 0 0 0 0 0 0 0 0 0 0 0 0 0 0
0 0 0 0 0 0 0 0 0 0 0 0 0 0 0 0 0 0 0 0 0 0 0 0 0 0 0 0 0 0 0 0 0 0 0 0 0 0
0 0 0 0 0 0 0 0 0 0 0 0 0 0 0 0 0 0 0 0 0 0 0 0 0 0 0 0 0 0 0 0 0 0 0 0 0 0
0 0 0 0 0 0 0 0 0 0 0 0 0 0 0 0 0 0 0 0 0 0 0 0 0 0 0 0 0 0 0 0 0 0 0 0 0 0
0 0 0 0 0 0 0 0 0 0 0 0 0 0 0 0 0 0 0 0 0 0 0 0 0 0 0 0 0 0 0 0 0 0 0 0 0 0
0 0 0 0 0 0 0 0 0 0 0 0 0 0 0 0 0 0 0 0 0 0 0 0 0 0 0 0 0 0 0 0 0 0 0 0 0 0
0 0 0 0 0 0 0 0 0 0 0 0 0 0 0 0 0 0 0 0 0 0 0 0 0 0 0 0 0 0 0 0 0 0 0 0 0 0
0 0 0 0 0 0 0 0 0 0 0 0 0 0 0 0 0 0 0 0 0 0 0 0 0 0 0 0 0 0 0 0 0 0 0 0 0 0
0 0 0 0 0 0 0 0 0 0 0 0 0 0 0 0 0 0 0 0 0 0 0 0 0 0 0 0 0 0 0 0 0 0 0 0 0 0
0 0 0 0 0 0 0 0 0 0 0 0 0 0 0 0 0 0 0 0 0 0 0 0 0 0 0 0 0 0 0 0 0 0 0 0 0 0
0 0 0 0 0 0 0 0 0 0 0 0 0 0 0 0 0 0 0 0 0 0 0 0 0 0 0 0 0 0 0 0 0 0 0 0 0 0
0 0 0 0 0 0 0 0 0 0 0 0 0 0 0 0 0 0 0 0 0 0 0 0 0 0 0 0 0 0 0 0 0 0 0 0 0 0
0 0 0 0 0 0 0 0 0 0 0 0 0 0 0 0 0 0 0 0 0 0 0 0 0 0 0 0 0 0 0 0 0 0 0 0 0 0
0 0 0 0 0 0 0 0 0 0 0 0 0 0 0 0 0 0 0 0 0 0 0 0 0 0 0 0 0 0 0 0 0 0 0 0 0 0
0 0 0 0 0 0 0 0 0 0 0 0 0 0 0 0 0 0 0 0 0 0 0 0 0 0 0 0 0 0 0 0 0 0 0 0 0 0
Wind_Speed
3 3 3 3 3 3 3 4 4 3 3 3 2 2 2 2 4 3 4 6 7 7 7 7 8 8 8 8 8 8 8 8 8 8 8 8 9 9
2 3 3 3 3 3 3 3 4 4 3 3 3 2 2 2 3 3 4 6 7 7 6 7 8 8 8 9 9 9 9 9 8 8 8 8 9 9
3 3 4 3 2 3 3 3 3 3 3 3 2 2 2 2 2 2 2 3 3 5 5 6 6 7 7 8 8 9 9 9 9 9 9 9 9 9
4 4 4 3 3 3 3 3 3 4 3 3 2 1 2 2 2 2 2 2 2 3 4 4 5 6 7 8 8 9 9 9 9 9 9 9 10 10
5 5 5 4 3 3 3 3 3 3 3 3 2 1 1 1 1 1 1 1 2 2 3 4 5 6 6 7 8 9 9 10 10 10 10 10 10 9
4 5 5 5 5 4 3 4 3 3 2 2 2 1 1 1 1 1 1 1 2 2 2 2 3 4 5 6 7 8 9 9 10 10 10 9 9 9
4 4 5 5 6 5 4 4 4 3 2 2 2 1 2 1 2 2 2 2 2 1 2 2 2 2 3 5 6 7 8 8 9 10 9 9 9 9
4 4 4 4 5 5 5 5 6 5 4 3 3 3 3 3 2 2 2 1 2 1 1 3 2 2 3 3 4 5 7 8 8 9 9 9 9 9
4 3 3 3 3 3 3 3 4 5 6 5 5 5 4 4 3 3 3 3 3 2 1 3 2 3 3 3 4 5 5 6 7 7 8 8 8 9
4 4 4 3 3 3 2 2 2 3 5 5 5 5 4 4 4 4 3 2 2 2 2 2 2 2 3 2 3 4 4 5 6 6 7 7 8 8
4 4 4 4 4 4 3 2 2 3 3 4 4 4 4 4 3 2 2 2 2 2 2 2 2 2 2 2 2 2 3 4 5 5 6 6 7 6
2 3 4 4 4 4 4 3 4 3 2 1 1 2 2 2 3 4 4 3 2 2 2 3 2 1 2 1 1 1 2 3 4 4 5 6 5 4
3 2 3 4 5 5 5 4 5 3 1 1 1 1 1 1 2 2 3 4 4 3 2 3 2 2 2 2 2 1 2 2 2 2 3 4 4 5
3 3 3 4 5 5 4 4 4 3 1 1 1 1 2 2 2 2 3 4 4 5 3 3 3 3 2 2 2 2 1 2 2 2 2 2 3 5
3 4 3 3 3 3 3 4 3 2 2 2 2 3 2 3 2 2 2 2 2 3 3 4 4 3 3 3 3 2 2 2 2 2 2 2 2 2
2 2 2 2 2 2 2 2 2 2 3 3 2 2 2 1 1 1 1 1 1 2 2 3 4 4 3 3 3 4 3 3 2 2 2 3 3 3
2 1 1 0 1 1 1 1 2 2 2 3 2 2 2 2 2 2 1 1 1 2 2 1 2 3 4 3 3 5 4 4 4 3 3 3 4 4
3 1 1 1 2 2 2 2 2 2 3 3 3 3 3 3 3 2 2 2 2 3 3 2 1 1 1 3 6 6 4 4 4 3 3 4 5 4
2 1 1 2 2 2 2 2 3 3 2 2 3 3 3 3 2 2 2 2 3 3 3 2 2 2 3 4 3 6 5 4 3 3 3 4 5 5
1 1 2 2 2 2 2 2 2 2 2 2 3 3 3 3 3 3 3 3 3 3 3 3 3 4 4 4 4 3 7 6 4 4 4 4 5 5
2 2 2 2 2 2 2 2 2 2 2 2 2 3 3 3 3 3 3 4 4 3 4 4 4 5 3 2 3 4 3 6 6 4 4 4 4 4
2 2 2 2 2 2 2 2 2 2 2 2 3 3 3 3 4 4 4 4 4 4 5 4 3 3 3 4 5 5 4 3 5 7 7 7 4 4
2 2 2 2 2 2 2 2 3 2 2 3 3 3 3 3 3 4 4 4 4 5 5 4 3 3 4 4 5 5 6 5 3 4 5 7 10 11
Wind_Direction
209 206 212 218 211 211 202 194 191 228 259 254 249 245 238 240 246 244 242 242 242 240 241 241 240 238 234 231 229 227 224 222 223 223 221 222 225 227
203 207 223 227 222 215 210 207 198 200 235 247 241 257 251 252 255 250 249 254 249 244 244 241 240 239 233 230 228 225 221 218 220 223 223 223 224 226
216 213 230 230 226 221 207 199 201 195 219 257 255 267 250 256 276 267 263 256 251 242 242 242 240 238 234 232 230 227 221 217 219 222 224 225 225 224
223 218 233 226 225 226 216 213 211 205 204 238 264 271 262 264 263 269 273 262 262 257 248 245 248 249 242 236 232 229 224 221 220 222 223 223 223 223
218 216 225 216 224 224 216 216 216 207 199 208 242 252 265 272 283 286 277 283 280 271 254 250 254 254 247 241 237 232 229 226 223 221 222 224 223 222
225 220 219 212 218 219 218 218 208 196 191 196 223 249 255 257 225 242 275 277 282 294 292 277 270 259 252 247 241 235 230 227 226 223 220 221 222 220
234 228 221 217 220 215 214 208 196 192 191 199 218 228 242 239 231 223 243 277 279 270 280 281 272 266 259 252 242 234 229 225 223 222 219 218 219 218
233 239 233 225 229 227 226 214 197 195 199 203 217 226 241 237 223 217 223 249 270 255 258 275 246 255 259 254 252 236 230 225 221 219 218 219 221 221
227 229 235 233 221 222 234 230 223 217 204 200 217 229 229 221 209 218 216 222 245 259 246 270 254 255 260 265 258 240 231 227 222 220 219 221 223 223
225 222 222 232 223 207 213 227 243 244 230 218 222 233 236 226 214 216 216 221 251 255 218 252 266 266 279 273 268 244 236 231 225 221 218 222 225 227
235 225 216 224 226 193 182 210 247 266 254 227 230 240 241 234 206 181 189 202 252 258 208 227 255 276 280 275 275 261 245 235 230 228 228 226 226 226
246 234 220 218 214 191 188 199 226 251 258 272 273 272 261 244 210 203 205 210 227 251 211 208 232 242 275 271 270 268 258 252 239 238 238 236 226 219
235 243 238 217 216 212 206 210 220 220 214 231 261 276 286 279 252 225 218 209 215 234 214 194 215 213 233 279 294 265 256 266 260 252 245 243 231 211
229 236 233 215 220 220 214 221 218 201 186 199 242 266 272 277 279 267 240 227 228 239 232 201 216 212 211 247 272 279 264 259 252 258 262 251 237 223
223 223 227 219 217 222 216 207 195 181 178 203 236 252 256 263 279 292 276 242 244 252 247 225 218 215 217 235 247 255 271 270 243 246 255 251 249 232
223 207 194 198 202 211 203 195 194 194 199 219 240 255 262 261 267 270 277 284 286 293 262 229 222 211 219 229 236 254 251 249 252 250 256 260 254 239
167 126 128 168 215 223 226 222 208 201 215 229 234 250 262 265 268 250 239 231 238 272 290 277 226 221 230 233 244 252 255 254 253 252 244 257 256 246
138 158 198 222 232 232 233 240 236 232 232 236 242 244 249 254 261 248 219 227 247 261 268 273 264 249 249 246 227 242 251 254 255 246 236 246 258 253
137 186 217 231 242 241 237 236 242 247 234 229 242 249 250 252 249 251 241 237 250 261 265 257 240 233 261 282 263 216 233 249 246 245 241 241 255 259
189 214 234 242 245 245 244 247 255 259 248 241 245 251 247 244 246 249 246 247 255 263 269 261 243 235 240 262 275 262 224 230 234 245 250 252 258 264
236 245 252 251 252 254 254 251 251 253 259 254 250 252 250 243 248 253 255 252 249 256 261 263 259 248 245 244 255 260 253 228 229 236 241 250 260 259
241 248 256 258 261 264 265 264 264 265 267 267 266 262 257 250 250 255 256 255 251 251 257 264 261 241 229 236 253 263 267 266 248 243 243 236 241 248
238 243 254 262 262 263 261 262 264 266 264 263 264 262 262 262 259 256 256 255 256 260 263 263 256 237 237 242 254 263 267 270 268 265 262 251 243 250